Weather History for Glendive, MT

Change the Weather History Date:

Thursday, March 7, 2013

  Actual Average Record
Temperature  
Mean Temperature 25 °F -  
Max Temperature 35 °F 29 °F 60 °F (2007)
Min Temperature 15 °F 11 °F -7 °F (2003)
Degree Days  
Heating Degree Days 40    
Moisture  
Dew Point 21 °F    
Average Humidity 83    
Maximum Humidity 93    
Minimum Humidity 70    
Precipitation  
Precipitation 0.00 in - - ()
Sea Level Pressure  
Sea Level Pressure 29.98 in    
Wind  
Wind Speed 6 mph (NW)    
Max Wind Speed 16 mph    
Max Gust Speed 21 mph    
Visibility 10 miles    
Events      
Averages and records for this station are not official NWS values.
T = Trace of Precipitation, MM = Missing Value Source: NWS Daily Summary

Daily Weather History Graph

Daily Weather History Graph

Search for Another Location

Airport:

Trip Planner

Search our weather history database for the weather conditions in past years. The results will help you decide how hot, cold, wet, or windy it might be!

Date:

Astronomy

Mar. 07, 2013 Rise Set
Actual Time 6:27 AM MST 5:53 PM MST
Civil Twilight 5:56 AM MST 6:24 PM MST
Nautical Twilight 5:21 AM MST 6:59 PM MST
Astronomical Twilight 4:45 AM MST 7:35 PM MST
Moon 3:43 AM MST (3/7) 1:31 PM MST (3/7)
Length of Visible Light 12h 27m
Length of Day
11h 26m
Waning Crescent, 19% of the Moon is Illuminated
Mar 7
Waning Crescent
Mar 11
New
Mar 19
First Quarter
Mar 27
Full
Apr 2
Last Quarter

Hourly Weather History & Observations

Time (MST) Temp. Windchill Dew Point Humidity Pressure Visibility Wind Dir Wind Speed Gust Speed Precip Events Conditions
12:15 AM 19.4 °F 9.5 °F 15.8 °F 86% 29.84 in 10.0 mi ENE 8.1 mph - N/A   Clear
12:55 AM 19.4 °F 8.6 °F 15.8 °F 86% 29.84 in 10.0 mi East 9.2 mph - N/A   Clear
1:15 AM 17.6 °F 7.3 °F 14.0 °F 86% 29.84 in 10.0 mi ENE 8.1 mph - N/A   Clear
1:35 AM 17.6 °F 8.2 °F 14.0 °F 86% 29.85 in 10.0 mi East 6.9 mph - N/A   Clear
1:55 AM 17.6 °F 8.2 °F 14.0 °F 86% 29.84 in 10.0 mi ENE 6.9 mph - N/A   Clear
2:15 AM 17.6 °F 8.2 °F 14.0 °F 86% 29.84 in 10.0 mi ENE 6.9 mph - N/A   Clear
2:35 AM 17.6 °F 9.3 °F 15.8 °F 93% 29.84 in 10.0 mi ENE 5.8 mph - N/A   Clear
2:55 AM 17.6 °F 9.3 °F 14.0 °F 86% 29.83 in 10.0 mi NE 5.8 mph - N/A   Clear
3:15 AM 17.6 °F 10.7 °F 12.2 °F 79% 29.84 in 10.0 mi NE 4.6 mph - N/A   Clear
3:35 AM 17.6 °F 9.3 °F 12.2 °F 79% 29.85 in 10.0 mi NE 5.8 mph - N/A   Clear
3:55 AM 17.6 °F 9.3 °F 15.8 °F 93% 29.85 in 10.0 mi ENE 5.8 mph - N/A   Clear
4:15 AM 17.6 °F 10.7 °F 15.8 °F 93% 29.85 in 10.0 mi ENE 4.6 mph - N/A   Clear
4:35 AM 17.6 °F 10.7 °F 14.0 °F 86% 29.85 in 10.0 mi NE 4.6 mph - N/A   Clear
4:55 AM 19.4 °F - 15.8 °F 86% 29.86 in 10.0 mi Calm Calm - N/A   Clear
5:15 AM 17.6 °F - 14.0 °F 86% 29.86 in 10.0 mi Calm Calm - N/A   Clear
5:35 AM 17.6 °F - 15.8 °F 93% 29.87 in 10.0 mi Calm Calm - N/A   Clear
5:55 AM 15.8 °F 7.2 °F 12.2 °F 86% 29.88 in 10.0 mi West 5.8 mph - N/A   Clear
6:15 AM 15.8 °F 6.1 °F 12.2 °F 86% 29.88 in 10.0 mi WNW 6.9 mph - N/A   Partly Cloudy
6:35 AM 15.8 °F 4.2 °F 10.4 °F 79% 29.90 in 10.0 mi West 9.2 mph - N/A   Mostly Cloudy
6:55 AM 15.8 °F 5.1 °F 10.4 °F 79% 29.91 in 10.0 mi West 8.1 mph - N/A   Partly Cloudy
7:15 AM 17.6 °F 10.7 °F 15.8 °F 93% 29.91 in 10.0 mi WNW 4.6 mph - N/A   Partly Cloudy
7:35 AM 17.6 °F 12.3 °F 15.8 °F 93% 29.90 in 10.0 mi NNW 3.5 mph - N/A   Mostly Cloudy
7:55 AM 19.4 °F - 17.6 °F 93% 29.90 in 10.0 mi Calm Calm - N/A   Overcast
8:15 AM 21.2 °F 14.9 °F 17.6 °F 86% 29.92 in 10.0 mi SW 4.6 mph - N/A   Mostly Cloudy
8:35 AM 21.2 °F 13.6 °F 17.6 °F 86% 29.94 in 10.0 mi SSW 5.8 mph - N/A   Scattered Clouds
8:55 AM 24.8 °F 20.5 °F 19.4 °F 80% 29.94 in 10.0 mi SSW 3.5 mph - N/A   Partly Cloudy
9:15 AM 26.6 °F 22.6 °F 21.2 °F 80% 29.94 in 10.0 mi South 3.5 mph - N/A   Scattered Clouds
9:35 AM 26.6 °F 21.2 °F 19.4 °F 74% 29.96 in 10.0 mi South 4.6 mph - N/A   Overcast
9:55 AM 26.6 °F 20.0 °F 21.2 °F 80% 29.96 in 10.0 mi South 5.8 mph - N/A   Overcast
10:35 AM 30.2 °F 22.6 °F 24.8 °F 80% 29.97 in 10.0 mi West 8.1 mph - N/A   Overcast
10:55 AM 32.0 °F 24.2 °F 24.8 °F 75% 29.98 in 10.0 mi West 9.2 mph - N/A   Overcast
11:35 AM 32.0 °F 24.2 °F 26.6 °F 80% 29.99 in 10.0 mi WNW 9.2 mph - N/A   Overcast
11:55 AM 32.0 °F 23.6 °F 26.6 °F 80% 30.00 in 10.0 mi WNW 10.4 mph - N/A   Overcast
12:15 PM 33.8 °F 23.9 °F 28.4 °F 81% 30.00 in 10.0 mi WNW 15.0 mph - N/A   Overcast
12:35 PM 33.8 °F 23.9 °F 28.4 °F 81% 30.00 in 10.0 mi West 15.0 mph - N/A   Overcast
12:55 PM 33.8 °F 25.3 °F 28.4 °F 81% 30.00 in 10.0 mi WNW 11.5 mph - N/A   Overcast
1:15 PM 35.6 °F 27.1 °F 28.4 °F 75% 30.00 in 10.0 mi WNW 12.7 mph - N/A   Mostly Cloudy
1:55 PM 35.6 °F 25.9 °F 28.4 °F 75% 30.01 in 10.0 mi NW 16.1 mph 20.7 mph N/A   Mostly Cloudy
2:15 PM 33.8 °F 23.9 °F 26.6 °F 75% 30.01 in 10.0 mi WNW 15.0 mph - N/A   Scattered Clouds
2:35 PM 35.6 °F 27.5 °F 26.6 °F 70% 30.01 in 10.0 mi NW 11.5 mph - N/A   Mostly Cloudy
2:55 PM 35.6 °F 28.6 °F 28.4 °F 75% 30.02 in 10.0 mi NW 9.2 mph - N/A   Mostly Cloudy
3:15 PM 35.6 °F 28.0 °F 28.4 °F 75% 30.03 in 10.0 mi WNW 10.4 mph - N/A   Mostly Cloudy
3:35 PM 35.6 °F 28.0 °F 28.4 °F 75% 30.03 in 10.0 mi NW 10.4 mph - N/A   Mostly Cloudy
3:55 PM 35.6 °F 29.9 °F 28.4 °F 75% 30.03 in 10.0 mi NNW 6.9 mph - N/A   Mostly Cloudy
4:15 PM 33.8 °F 26.4 °F 28.4 °F 81% 30.04 in 10.0 mi NW 9.2 mph - N/A   Mostly Cloudy
4:35 PM 33.8 °F 27.0 °F 28.4 °F 81% 30.05 in 10.0 mi NW 8.1 mph - N/A   Clear
4:55 PM 33.8 °F 30.8 °F 26.6 °F 75% 30.06 in 10.0 mi WNW 3.5 mph - N/A   Partly Cloudy
5:15 PM 33.8 °F 29.6 °F 26.6 °F 75% 30.05 in 10.0 mi NW 4.6 mph - N/A   Partly Cloudy
5:35 PM 33.8 °F - 26.6 °F 75% 30.06 in 10.0 mi Calm Calm - N/A   Clear
5:55 PM 33.8 °F - 26.6 °F 75% 30.07 in 10.0 mi Calm Calm - N/A   Clear
6:15 PM 30.2 °F - 26.6 °F 86% 30.07 in 10.0 mi Calm Calm - N/A   Clear
6:35 PM 30.2 °F - 26.6 °F 86% 30.08 in 10.0 mi Calm Calm - N/A   Clear
6:55 PM 28.4 °F 24.6 °F 23.0 °F 80% 30.08 in 10.0 mi NW 3.5 mph - N/A   Clear
7:15 PM 28.4 °F - 23.0 °F 80% 30.09 in 10.0 mi Calm Calm - N/A   Clear
7:35 PM 28.4 °F 24.6 °F 24.8 °F 86% 30.10 in 10.0 mi WNW 3.5 mph - N/A   Clear
7:55 PM 26.6 °F 22.6 °F 21.2 °F 80% 30.10 in 10.0 mi NW 3.5 mph - N/A   Clear
8:15 PM 26.6 °F 22.6 °F 23.0 °F 86% 30.10 in 10.0 mi NW 3.5 mph - N/A   Clear
8:55 PM 24.8 °F 19.1 °F 21.2 °F 86% 30.10 in 10.0 mi NNW 4.6 mph - N/A   Clear
9:15 PM 24.8 °F 19.1 °F 21.2 °F 86% 30.10 in 10.0 mi NNW 4.6 mph - N/A   Clear
9:35 PM 24.8 °F 19.1 °F 21.2 °F 86% 30.10 in 10.0 mi North 4.6 mph - N/A   Clear
9:55 PM 24.8 °F 19.1 °F 21.2 °F 86% 30.11 in 10.0 mi North 4.6 mph - N/A   Clear
10:35 PM 24.8 °F - 19.4 °F 80% 30.12 in 10.0 mi Calm Calm - N/A   Clear
10:55 PM 23.0 °F 14.7 °F 19.4 °F 86% 30.12 in 10.0 mi North 6.9 mph - N/A   Clear
11:15 PM 23.0 °F 12.4 °F 21.2 °F 93% 30.11 in 10.0 mi NNW 10.4 mph - N/A   Clear
11:35 PM 23.0 °F 14.7 °F 19.4 °F 86% 30.11 in 10.0 mi NNW 6.9 mph - N/A   Clear
11:55 PM 23.0 °F 14.7 °F 21.2 °F 93% 30.12 in 10.0 mi NW 6.9 mph - N/A   Clear